DW3588 Weather Reports


Display with metric or nautical units.
time (UTC)temp
F
wind
direction
speed
MPH
gust
MPH
rain 1hr
in
rain 24hr
in
rain mn
in
humidity
%
barometer
mb
20260904223746 81 223 3.0 8.0 0.00 0.00 0.00 39 1012.3
20260904223246 80 256 3.0 8.0 0.00 0.00 0.00 39 1012.4
20260904222716 79 136 5.0 10.0 0.00 0.00 0.00 40 1012.4
20260904222158 80 190 6.0 16.0 0.00 0.00 0.00 40 1012.3
20260904221700 80 142 4.0 16.0 0.00 0.00 0.00 39 1012.4
20260904221144 79 237 3.0 10.0 0.00 0.00 0.00 39 1012.5
20260904220644 80 317 3.0 10.0 0.00 0.00 0.00 38 1012.4
20260904220356 80 320 3.0 9.0 0.00 0.00 0.00 38 1012.4
20260904215856 80 253 4.0 9.0 0.00 0.00 0.00 39 1012.5
20260904215133 79 325 4.0 10.0 0.00 0.00 0.00 39 1012.4
20260904214858 78 22 4.0 10.0 0.00 0.00 0.00 41 1012.5
20260904214134 78 349 4.0 10.0 0.00 0.00 0.00 42 1012.5
20260904213634 78 0 6.0 13.0 0.00 0.00 0.00 41 1012.6
20260904213127 79 355 6.0 13.0 0.00 0.00 0.00 42 1012.6
20260904212626 80 335 5.0 11.0 0.00 0.00 0.00 41 1012.6
20260904212347 79 55 4.0 12.0 0.00 0.00 0.00 43 1012.6
20260904211556 80 42 5.0 12.0 0.00 0.00 0.00 42 1012.7
20260904211055 78 44 4.0 12.0 0.00 0.00 0.00 41 1012.7
20260904210547 78 119 4.0 10.0 0.00 0.00 0.00 42 1012.6
20260904210046 78 82 5.0 11.0 0.00 0.00 0.00 43 1012.7
20260904205544 78 333 5.0 11.0 0.00 0.00 0.00 43 1012.7
20260904205042 78 32 4.0 11.0 0.00 0.00 0.00 43 1012.7
20260904204542 79 71 4.0 11.0 0.00 0.00 0.00 45 1012.7
20260904204039 78 111 4.0 13.0 0.00 0.00 0.00 43 1012.7
20260904203539 79 336 4.0 13.0 0.00 0.00 0.00 42 1012.7
20260904203041 79 63 4.0 10.0 0.00 0.00 0.00 42 1012.7
20260904202537 78 336 3.0 5.0 0.00 0.00 0.00 43 1012.7
20260904202039 79 49 3.0 8.0 0.00 0.00 0.00 41 1012.8
20260904201515 79 161 4.0 10.0 0.00 0.00 0.00 43 1012.8
20260904201016 79 317 3.0 10.0 0.00 0.00 0.00 43 1012.8
20260904200512 79 338 3.0 11.0 0.00 0.00 0.00 41 1012.8
20260904200012 78 244 3.0 11.0 0.00 0.00 0.00 41 1012.9
20260904195512 78 299 3.0 8.0 0.00 0.00 0.00 44 1012.9
20260904195009 78 322 4.0 10.0 0.00 0.00 0.00 43 1012.9
20260904194509 77 325 4.0 10.0 0.00 0.00 0.00 42 1012.9
20260904194008 78 344 3.0 8.0 0.00 0.00 0.00 42 1012.9
20260904193506 78 36 3.0 8.0 0.00 0.00 0.00 43 1013.1
20260904193004 78 68 4.0 8.0 0.00 0.00 0.00 42 1013.0
20260904192939 78 123 4.0 9.0 0.00 0.00 0.00 44 1013.0
20260904192000 76 346 3.0 9.0 0.00 0.00 0.00 45 1013.2
20260904191721 76 13 3.0 7.0 0.00 0.00 0.00 45 1013.2
20260904190957 76 92 3.0 9.0 0.00 0.00 0.00 44 1013.3
20260904190703 76 54 3.0 9.0 0.00 0.00 0.00 44 1013.3
20260904185941 77 99 2.0 6.0 0.00 0.00 0.00 44 1013.3
20260904185418 77 162 2.0 5.0 0.00 0.00 0.00 41 1013.3
20260904184848 77 158 3.0 7.0 0.00 0.00 0.00 41 1013.3
20260904184131 78 191 2.0 6.0 0.00 0.00 0.00 42 1013.4
20260904183606 77 355 2.0 6.0 0.00 0.00 0.00 42 1013.3
20260904183107 77 272 2.0 8.0 0.00 0.00 0.00 44 1013.3
20260904182547 76 65 2.0 8.0 0.00 0.00 0.00 44 1013.3
20260904182046 75 55 2.0 9.0 0.00 0.00 0.00 43 1013.4
20260904181547 76 281 3.0 9.0 0.00 0.00 0.00 43 1013.3
20260904181041 74 91 2.0 5.0 0.00 0.00 0.00 46 1013.4
20260904180537 74 250 1.0 5.0 0.00 0.00 0.00 47 1013.4
20260904180041 73 337 2.0 5.0 0.00 0.00 0.00 49 1013.5
20260904175536 73 29 2.0 5.0 0.00 0.00 0.00 49 1013.5
20260904175033 72 16 2.0 5.0 0.00 0.00 0.00 52 1013.5
20260904174533 71 324 2.0 5.0 0.00 0.00 0.00 54 1013.5
20260904174039 71 38 3.0 9.0 0.00 0.00 0.00 53 1013.5
20260904173551 71 346 4.0 9.0 0.00 0.00 0.00 52 1013.5
20260904173100 71 75 3.0 10.0 0.00 0.00 0.00 54 1013.5
20260904172524 71 346 3.0 10.0 0.00 0.00 0.00 54 1013.5
20260904172031 71 333 3.0 6.0 0.00 0.00 0.00 54 1013.4
20260904171523 72 306 3.0 7.0 0.00 0.00 0.00 54 1013.4
20260904171246 73 302 3.0 7.0 0.00 0.00 0.00 53 1013.4
20260904170521 72 210 2.0 7.0 0.00 0.00 0.00 56 1013.4
20260904170020 70 271 3.0 7.0 0.00 0.00 0.00 55 1013.4
20260904165518 71 266 3.0 7.0 0.00 0.00 0.00 56 1013.4
20260904165017 71 174 2.0 5.0 0.00 0.00 0.00 57 1013.4
20260904164517 69 212 2.0 5.0 0.00 0.00 0.00 57 1013.3
20260904164015 68 304 2.0 6.0 0.00 0.00 0.00 60 1013.2
20260904163513 68 286 2.0 6.0 0.00 0.00 0.00 61 1013.2
20260904163010 67 223 4.0 13.0 0.00 0.00 0.00 64 1013.2
20260904162510 67 254 3.0 13.0 0.00 0.00 0.00 65 1013.1
20260904162008 66 55 2.0 5.0 0.00 0.00 0.00 67 1013.1
20260904161506 66 350 2.0 5.0 0.00 0.00 0.00 67 1013.1
20260904161004 66 93 2.0 5.0 0.00 0.00 0.00 68 1013.0
20260904160505 65 214 2.0 7.0 0.00 0.00 0.00 68 1013.1
20260904160005 65 215 2.0 7.0 0.00 0.00 0.00 68 1013.1
20260904155505 64 294 2.0 4.0 0.00 0.00 0.00 69 1013.0
20260904154959 64 219 2.0 7.0 0.00 0.00 0.00 70 1013.0
20260904154457 63 242 2.0 7.0 0.00 0.00 0.00 71 1013.0
20260904153957 62 221 2.0 4.0 0.00 0.00 0.00 72 1013.0
20260904153720 62 298 1.0 3.0 0.00 0.00 0.00 72 1013.0
20260904153220 62 0 1.0 3.0 0.00 0.00 0.00 73 1013.0
20260904152455 62 0 1.0 3.0 0.00 0.00 0.00 73 1013.0
20260904151955 61 40 1.0 3.0 0.00 0.00 0.00 74 1013.0
20260904151453 61 41 1.0 3.0 0.00 0.00 0.00 74 1013.0
20260904150951 61 42 1.0 3.0 0.00 0.00 0.00 74 1013.0
20260904150716 61 69 1.0 6.0 0.00 0.00 0.00 75 1012.9
20260904145947 60 69 0.0 6.0 0.00 0.00 0.00 75 1012.9
20260904145447 60 91 0.0 2.0 0.00 0.00 0.00 75 1012.8
20260904144946 60 91 1.0 2.0 0.00 0.00 0.00 75 1012.7
20260904144444 60 92 1.0 3.0 0.00 0.00 0.00 75 1012.6
20260904143941 60 90 1.0 4.0 0.00 0.00 0.00 75 1012.6
20260904143439 60 340 2.0 4.0 0.00 0.00 0.00 75 1012.5
20260904142939 60 34 2.0 4.0 0.00 0.00 0.00 75 1012.5
20260904142438 60 337 1.0 3.0 0.00 0.00 0.00 75 1012.5
20260904141939 60 336 2.0 6.0 0.00 0.00 0.00 75 1012.4
20260904141439 60 5 2.0 6.0 0.00 0.00 0.00 74 1012.4
20260904140938 60 329 2.0 4.0 0.00 0.00 0.00 74 1012.3
20260904140439 61 223 2.0 5.0 0.00 0.00 0.00 74 1012.2
20260904135937 61 223 3.0 5.0 0.00 0.00 0.00 74 1012.1
20260904135437 61 224 3.0 5.0 0.00 0.00 0.00 74 1012.0
20260904134937 61 209 3.0 5.0 0.00 0.00 0.00 74 1012.0
20260904134437 61 221 3.0 6.0 0.00 0.00 0.00 74 1012.1
20260904133937 61 225 4.0 9.0 0.00 0.00 0.00 73 1012.0
20260904133437 61 215 3.0 9.0 0.00 0.00 0.00 73 1012.1
20260904132936 61 240 2.0 6.0 0.00 0.00 0.00 72 1012.0
20260904132437 61 242 2.0 4.0 0.00 0.00 0.00 72 1012.0
20260904131937 61 248 1.0 4.0 0.00 0.00 0.00 72 1011.9
20260904131438 61 244 1.0 4.0 0.00 0.00 0.00 71 1011.9
20260904130937 61 244 1.0 4.0 0.00 0.00 0.00 71 1011.8
20260904130437 62 244 2.0 5.0 0.00 0.00 0.00 71 1011.7
20260904125936 62 244 2.0 5.0 0.00 0.00 0.00 71 1011.7
20260904125433 62 245 2.0 6.0 0.00 0.00 0.00 71 1011.6
20260904124930 62 244 2.0 6.0 0.00 0.00 0.00 70 1011.6
20260904124429 62 270 2.0 4.0 0.00 0.00 0.00 70 1011.6
20260904123929 62 271 2.0 4.0 0.00 0.00 0.00 70 1011.5
20260904123650 62 273 3.0 5.0 0.00 0.00 0.00 69 1011.6
20260904122926 62 256 3.0 5.0 0.00 0.00 0.00 69 1011.5
20260904122427 63 228 2.0 4.0 0.00 0.00 0.00 69 1011.5
20260904122143 63 235 2.0 4.0 0.00 0.00 0.00 69 1011.5
20260904121459 63 242 1.0 3.0 0.00 0.00 0.00 69 1011.6
20260904121423 63 236 1.0 3.0 0.00 0.00 0.00 69 1011.6
20260904121124 63 242 2.0 3.0 0.00 0.00 0.00 69 1011.6
20260904115923 64 244 2.0 3.0 0.00 0.00 0.00 69 1011.6
20260904115421 64 244 2.0 4.0 0.00 0.00 0.00 68 1011.6
20260904114919 64 246 1.0 4.0 0.00 0.00 0.00 68 1011.6
20260904114418 64 245 1.0 3.0 0.00 0.00 0.00 68 1011.6
20260904113915 64 245 1.0 4.0 0.00 0.00 0.00 68 1011.6
20260904113415 64 246 1.0 4.0 0.00 0.00 0.00 69 1011.5
20260904112912 64 244 1.0 3.0 0.00 0.00 0.00 69 1011.5
20260904112411 64 244 1.0 4.0 0.00 0.00 0.00 68 1011.6
20260904111909 64 244 3.0 5.0 0.00 0.00 0.00 68 1011.5
20260904111404 64 248 3.0 7.0 0.00 0.00 0.00 68 1011.6
20260904110905 64 278 3.0 7.0 0.00 0.00 0.00 68 1011.5
20260904110629 64 252 2.0 6.0 0.00 0.00 0.00 69 1011.6
20260904105905 64 264 2.0 6.0 0.00 0.00 0.00 69 1011.5
20260904105405 64 264 2.0 7.0 0.00 0.00 0.00 69 1011.5
20260904104906 64 264 3.0 7.0 0.00 0.00 0.00 69 1011.5
20260904104400 64 261 3.0 8.0 0.00 0.00 0.00 69 1011.4
20260904103901 64 305 2.0 8.0 0.00 0.00 0.00 69 1011.4
20260904103359 65 282 3.0 11.0 0.00 0.00 0.00 68 1011.3
20260904102858 65 279 4.0 11.0 0.00 0.00 0.00 68 1011.3
20260904102356 65 295 4.0 9.0 0.00 0.00 0.00 68 1011.3
20260904102120 65 273 4.0 7.0 0.00 0.00 0.00 68 1011.3
20260904101358 65 265 4.0 9.0 0.00 0.00 0.00 68 1011.2
20260904101339 65 269 3.0 9.0 0.00 0.00 0.00 68 1011.1
20260904100353 65 268 3.0 7.0 0.00 0.00 0.00 68 1011.1
20260904095851 65 264 3.0 8.0 0.00 0.00 0.00 69 1011.1
20260904095349 65 276 3.0 8.0 0.00 0.00 0.00 69 1011.2
20260904094846 65 264 3.0 8.0 0.00 0.00 0.00 69 1011.2
20260904094344 65 278 3.0 8.0 0.00 0.00 0.00 70 1011.3
20260904094104 65 215 4.0 10.0 0.00 0.00 0.00 71 1011.3
20260904093340 65 257 4.0 10.0 0.00 0.00 0.00 71 1011.3
20260904092839 65 246 3.0 8.0 0.00 0.00 0.00 71 1011.2
20260904092339 65 264 3.0 8.0 0.00 0.00 0.00 71 1011.2
20260904091838 65 260 3.0 8.0 0.00 0.00 0.00 71 1011.1
20260904091328 65 265 3.0 7.0 0.00 0.00 0.00 72 1011.1
20260904090829 65 288 4.0 10.0 0.00 0.00 0.00 71 1011.2
20260904090327 65 313 5.0 10.0 0.00 0.00 0.00 71 1011.2
20260904085825 65 311 5.0 11.0 0.00 0.00 0.00 71 1011.1
20260904085325 65 250 5.0 11.0 0.00 0.00 0.00 71 1011.1
20260904084824 65 285 5.0 12.0 0.00 0.00 0.00 71 1011.1
20260904084323 65 319 5.0 12.0 0.00 0.00 0.00 71 1011.1
20260904083821 65 277 3.0 8.0 0.00 0.00 0.00 71 1011.1
20260904083319 65 301 3.0 7.0 0.00 0.00 0.00 71 1011.1
20260904082816 65 297 3.0 7.0 0.00 0.00 0.00 71 1011.2
20260904082316 65 302 2.0 6.0 0.00 0.00 0.00 71 1011.2
20260904081816 65 296 3.0 6.0 0.00 0.00 0.00 71 1011.2
20260904081314 65 322 2.0 6.0 0.00 0.00 0.00 72 1011.2
20260904080811 65 307 1.0 5.0 0.00 0.00 0.00 73 1011.2
20260904080530 65 236 1.0 3.0 0.00 0.00 0.00 73 1011.2
20260904075804 65 236 1.0 2.0 0.00 0.00 0.00 73 1011.2
20260904075745 65 236 1.0 4.0 0.00 0.00 0.00 72 1011.1
20260904074759 65 236 2.0 5.0 0.00 0.00 0.00 72 1011.0
20260904074259 65 238 3.0 7.0 0.00 0.00 0.00 72 1011.0
20260904073757 64 234 2.0 7.0 0.00 0.00 0.00 73 1011.0
20260904073254 64 243 1.0 4.0 0.00 0.00 0.00 73 1011.0
20260904072753 64 253 2.0 4.0 0.00 0.00 0.00 73 1011.0
20260904072252 64 253 2.0 4.0 0.00 0.00 0.00 73 1011.0
20260904071752 64 249 3.0 4.0 0.00 0.00 0.00 74 1011.1
20260904071519 64 263 3.0 9.0 0.00 0.00 0.00 75 1011.1
20260904070750 64 268 4.0 9.0 0.00 0.00 0.00 75 1011.0
20260904070252 64 277 5.0 10.0 0.00 0.00 0.00 75 1011.0
20260904065751 64 280 5.0 10.0 0.00 0.00 0.00 75 1011.0
20260904065248 64 279 5.0 9.0 0.00 0.00 0.00 76 1011.1
20260904064744 64 267 6.0 10.0 0.00 0.00 0.00 76 1011.1
20260904064243 63 267 5.0 10.0 0.00 0.00 0.00 77 1011.1
20260904063744 63 331 6.0 11.0 0.00 0.00 0.00 78 1011.1
20260904063225 63 292 6.0 11.0 0.00 0.00 0.00 78 1011.2
20260904062722 63 307 7.0 12.0 0.00 0.00 0.00 79 1011.2
20260904062222 64 306 7.0 15.0 0.00 0.00 0.00 79 1011.2
20260904061719 64 308 7.0 15.0 0.00 0.00 0.00 79 1011.2
20260904061218 64 267 6.0 16.0 0.00 0.00 0.00 79 1011.2
20260904060715 65 299 6.0 16.0 0.00 0.00 0.00 78 1011.1
20260904060213 65 314 8.0 19.0 0.00 0.00 0.00 77 1011.1
20260904055707 65 342 8.0 19.0 0.00 0.00 0.00 76 1011.1
20260904055703 66 311 7.0 14.0 0.00 0.00 0.00 77 1011.0
20260904054707 67 296 7.0 14.0 0.00 0.00 0.00 77 1010.9
20260904054429 67 340 6.0 14.0 0.00 0.00 0.00 76 1010.9
20260904053706 67 308 4.0 12.0 0.00 0.00 0.00 76 1010.8
20260904053205 67 251 4.0 10.0 0.00 0.00 0.00 76 1010.9
20260904052703 67 235 4.0 10.0 0.00 0.00 0.00 76 1010.8
20260904052201 67 244 3.0 9.0 0.00 0.00 0.00 76 1011.0
20260904051702 67 246 2.0 6.0 0.00 0.00 0.00 76 1010.9
20260904051156 67 268 2.0 6.0 0.00 0.00 0.00 76 1010.9
20260904050930 67 309 1.0 4.0 0.00 0.00 0.00 76 1010.9
20260904050157 67 309 1.0 4.0 0.00 0.00 0.00 76 1010.9
20260904045656 67 321 1.0 3.0 0.00 0.00 0.00 76 1010.9
20260904045154 67 322 2.0 5.0 0.00 0.00 0.00 76 1011.0
20260904044650 67 322 2.0 5.0 0.00 0.00 0.00 76 1011.0
20260904044149 67 333 2.0 4.0 0.00 0.00 0.00 76 1011.0
20260904043646 67 333 2.0 4.0 0.00 0.00 0.00 75 1011.1
20260904043146 67 5 2.0 4.0 0.00 0.00 0.00 75 1011.1
20260904042643 68 5 3.0 8.0 0.00 0.00 0.00 75 1011.0
20260904042407 68 334 4.0 8.0 0.00 0.00 0.00 74 1010.9
20260904041643 68 355 4.0 8.0 0.00 0.00 0.00 74 1011.0
20260904041142 68 355 4.0 8.0 0.00 0.00 0.00 73 1011.0
20260904040642 69 325 4.0 8.0 0.00 0.00 0.00 73 1010.9
20260904040141 69 306 4.0 8.0 0.00 0.00 0.00 72 1010.7
20260904035905 69 319 4.0 8.0 0.00 0.00 0.00 72 1010.8
20260904035138 70 322 2.0 6.0 0.00 0.00 0.00 72 1010.7
20260904034638 70 325 2.0 5.0 0.00 0.00 0.00 71 1010.8
20260904034134 70 319 3.0 7.0 0.00 0.00 0.00 71 1010.7
20260904033634 70 330 4.0 10.0 0.00 0.00 0.00 70 1010.6
20260904033134 70 224 5.0 10.0 0.00 0.00 0.00 69 1010.6
20260904032633 70 257 5.0 9.0 0.00 0.00 0.00 69 1010.5
20260904032135 71 278 4.0 9.0 0.00 0.00 0.00 69 1010.5
20260904031629 71 259 4.0 9.0 0.00 0.00 0.00 69 1010.5
20260904031132 71 310 4.0 9.0 0.00 0.00 0.00 68 1010.5
20260904030630 71 227 5.0 14.0 0.00 0.00 0.00 69 1010.5
20260904030128 71 267 5.0 14.0 0.00 0.00 0.00 68 1010.5
20260904025628 71 300 4.0 11.0 0.00 0.00 0.00 68 1010.4
20260904025126 71 246 5.0 11.0 0.00 0.00 0.00 68 1010.4
20260904024622 71 217 5.0 11.0 0.00 0.00 0.00 68 1010.4
20260904024121 71 205 5.0 11.0 0.00 0.00 0.00 67 1010.4
20260904023618 72 291 5.0 13.0 0.00 0.00 0.00 67 1010.3
20260904023117 72 251 4.0 15.0 0.00 0.00 0.00 66 1010.4
20260904022614 72 259 3.0 15.0 0.00 0.00 0.00 65 1010.5
20260904022114 72 236 3.0 9.0 0.00 0.00 0.00 65 1010.5
20260904021838 72 213 3.0 9.0 0.00 0.00 0.00 64 1010.5
20260904021112 73 239 3.0 7.0 0.00 0.00 0.00 64 1010.4
20260904020831 73 263 3.0 7.0 0.00 0.00 0.00 64 1010.4
20260904020311 73 252 1.0 4.0 0.00 0.00 0.00 63 1010.5
20260904020156 73 234 3.0 7.0 0.00 0.00 0.00 64 1010.5
20260904015330 73 251 3.0 12.0 0.00 0.00 0.00 63 1010.5
20260904014606 73 277 4.0 12.0 0.00 0.00 0.00 62 1010.6
20260904014105 74 236 4.0 10.0 0.00 0.00 0.00 62 1010.5
20260904014037 74 230 3.0 11.0 0.00 0.00 0.00 61 1010.5
20260904013054 74 273 2.0 11.0 0.00 0.00 0.00 60 1010.6
20260904012540 75 226 3.0 11.0 0.00 0.00 0.00 59 1010.5
20260904012038 75 228 5.0 11.0 0.00 0.00 0.00 59 1010.6
20260904011537 75 236 6.0 11.0 0.00 0.00 0.00 58 1010.5
20260904011038 75 248 5.0 10.0 0.00 0.00 0.00 57 1010.5
20260904010800 76 278 6.0 12.0 0.00 0.00 0.00 56 1010.4
20260904010036 76 248 7.0 12.0 0.00 0.00 0.00 56 1010.4
20260904005536 76 269 7.0 11.0 0.00 0.00 0.00 55 1010.4
20260904005037 77 277 6.0 11.0 0.00 0.00 0.00 55 1010.4
20260904004536 77 241 5.0 11.0 0.00 0.00 0.00 55 1010.4
20260904004239 78 278 5.0 12.0 0.00 0.00 0.00 54 1010.4
20260904004122 77 243 5.0 12.0 0.00 0.00 0.00 54 1010.4
20260904003037 78 279 5.0 11.0 0.00 0.00 0.00 53 1010.4
20260904002536 78 198 5.0 8.0 0.00 0.00 0.00 53 1010.5
20260904002035 78 274 5.0 11.0 0.00 0.00 0.00 53 1010.5
20260904001533 78 253 6.0 11.0 0.00 0.00 0.00 53 1010.5
20260904001256 79 265 6.0 11.0 0.00 0.00 0.00 52 1010.5
20260904000532 79 240 6.0 11.0 0.00 0.00 0.00 53 1010.5
20260904000032 79 251 5.0 11.0 0.00 0.00 0.00 53 1010.6
20260903235533 79 270 4.0 9.0 0.00 0.00 0.00 53 1010.6
20260903235028 78 269 3.0 9.0 0.00 0.00 0.00 53 1010.6
20260903234527 79 266 4.0 11.0 0.00 0.00 0.00 53 1010.6
20260903234029 79 265 3.0 11.0 0.00 0.00 0.00 53 1010.7
20260903233526 78 283 3.0 9.0 0.00 0.00 0.00 53 1010.7
20260903233026 79 252 4.0 10.0 0.00 0.00 0.00 53 1010.8
20260903232526 79 313 5.0 10.0 0.00 0.00 0.00 52 1010.8
20260903232246 80 259 5.0 11.0 0.00 0.00 0.00 52 1010.8
20260903231525 79 274 6.0 11.0 0.00 0.00 0.00 52 1010.8
20260903231026 80 320 6.0 11.0 0.00 0.00 0.00 52 1010.9
20260903230525 80 246 5.0 11.0 0.00 0.00 0.00 51 1010.9
20260903230027 80 274 4.0 12.0 0.00 0.00 0.00 52 1011.1
20260903225747 80 297 5.0 12.0 0.00 0.00 0.00 52 1011.2
20260903225024 79 265 4.0 9.0 0.00 0.00 0.00 53 1011.2
20260903224522 78 253 4.0 9.0 0.00 0.00 0.00 54 1011.4